Weather History for Aberdeen, SD

Change the Weather History Date:

Tuesday, January 22, 2013

  Actual Average Record
Temperature  
Mean Temperature 3 °F 12 °F  
Max Temperature 12 °F 23 °F 58 °F (1942)
Min Temperature -6 °F 1 °F -30 °F (1936)
Degree Days  
Heating Degree Days 62 53  
Month to date heating degree days 1097 1166  
Since 1 July heating degree days 4521 4657  
Cooling Degree Days 0 0  
Month to date cooling degree days 0 0  
Year to date cooling degree days 0 0  
Moisture  
Dew Point 0 °F    
Average Humidity 70    
Maximum Humidity 82    
Minimum Humidity 58    
Precipitation  
Precipitation 0.01 in 0.01 in 1.00 in (1897)
Month to date precipitation 0.11 0.35  
Year to date precipitation 0.11 0.35  
Snow  
Snow T in - - ()
Month to date snowfall 1.6  
Since 1 July snowfall 15.5  
Snow Depth T in    
Sea Level Pressure  
Sea Level Pressure 30.30 in    
Wind  
Wind Speed 6 mph (South)    
Max Wind Speed 13 mph    
Max Gust Speed 15 mph    
Visibility 9 miles    
Events Snow    
T = Trace of Precipitation, MM = Missing Value Source: NWS Daily Summary

Daily Weather History Graph

Daily Weather History Graph

Search for Another Location

Airport:

Trip Planner

Search our weather history database for the weather conditions in past years. The results will help you decide how hot, cold, wet, or windy it might be!

Date:

Astronomy

Jan. 22, 2013 Rise Set
Actual Time 8:04 AM CST 5:26 PM CST
Civil Twilight 7:32 AM CST 5:59 PM CST
Nautical Twilight 6:55 AM CST 6:35 PM CST
Astronomical Twilight 6:20 AM CST 7:10 PM CST
Moon 1:48 PM CST (1/22) 4:29 AM CST (1/22)
Length of Visible Light 10h 27m
Length of Day
9h 22m
Waxing Gibbous, 83% of the Moon is Illuminated
Jan 22
Waxing Gibbous
Jan 26
Full
Feb 3
Last Quarter
Feb 10
New
Feb 17
First Quarter

Hourly Weather History & Observations

Time (CST) Temp. Windchill Dew Point Humidity Pressure Visibility Wind Dir Wind Speed Gust Speed Precip Events Conditions
12:53 AM -0.0 °F - -7.1 °F 72% 30.40 in 10.0 mi Calm Calm - N/A   Clear
1:53 AM -0.9 °F - -7.1 °F 75% 30.40 in 10.0 mi Calm Calm - N/A   Clear
2:53 AM -2.9 °F - -8.0 °F 79% 30.39 in 10.0 mi Calm Calm - N/A   Clear
3:53 AM -5.1 °F -15.8 °F -9.9 °F 80% 30.41 in 10.0 mi South 4.6 mph - N/A   Partly Cloudy
4:53 AM -2.0 °F - -8.0 °F 76% 30.40 in 10.0 mi Calm Calm - N/A   Clear
5:53 AM -0.0 °F -7.9 °F -6.0 °F 76% 30.40 in 10.0 mi ENE 3.5 mph - N/A   Clear
6:53 AM -0.0 °F -7.9 °F -7.1 °F 72% 30.38 in 10.0 mi SSE 3.5 mph - N/A   Partly Cloudy
7:53 AM -2.0 °F - -8.0 °F 76% 30.39 in 10.0 mi Calm Calm - N/A   Scattered Clouds
8:53 AM -0.0 °F - -7.1 °F 72% 30.40 in 10.0 mi Calm Calm - N/A   Partly Cloudy
9:53 AM 1.9 °F -9.2 °F -5.1 °F 72% 30.40 in 10.0 mi South 5.8 mph - N/A   Mostly Cloudy
10:53 AM 5.0 °F -8.1 °F -4.0 °F 66% 30.39 in 10.0 mi South 8.1 mph - N/A   Overcast
11:53 AM 7.0 °F -5.7 °F -2.9 °F 64% 30.38 in 10.0 mi SSW 8.1 mph - N/A   Overcast
12:53 PM 10.0 °F -2.9 °F -2.0 °F 58% 30.34 in 10.0 mi South 9.2 mph - N/A   Overcast
1:53 PM 10.0 °F -0.9 °F 1.9 °F 70% 30.32 in 6.0 mi South 6.9 mph - N/A   Haze
2:30 PM 10.4 °F -1.5 °F 3.2 °F 73% 30.22 in 2.5 mi South 8.1 mph - 0.00 in Snow Light Snow
2:46 PM 10.4 °F -1.5 °F 3.2 °F 73% 30.21 in 4.0 mi South 8.1 mph - 0.00 in   Haze
2:53 PM 10.9 °F 0.2 °F 3.0 °F 70% 30.31 in 4.0 mi SSW 6.9 mph - 0.00 in   Haze
3:00 PM 10.4 °F -0.4 °F 3.2 °F 73% 30.20 in 5.0 mi South 6.9 mph - 0.01 in   Haze
3:53 PM 12.0 °F 0.5 °F 3.0 °F 67% 30.30 in 8.0 mi SSE 8.1 mph - 0.01 in   Overcast
4:30 PM 10.4 °F -0.4 °F 3.2 °F 73% 30.20 in 10.0 mi South 6.9 mph - N/A   Overcast
4:53 PM 10.9 °F -0.8 °F 3.0 °F 70% 30.29 in 8.0 mi South 8.1 mph - 0.00 in Snow Light Snow
5:53 PM 10.9 °F -0.8 °F 3.9 °F 73% 30.27 in 10.0 mi South 8.1 mph - 0.00 in   Overcast
6:53 PM 10.9 °F -1.8 °F 3.9 °F 73% 30.25 in 10.0 mi South 9.2 mph - N/A   Overcast
7:53 PM 10.9 °F -2.6 °F 5.0 °F 77% 30.25 in 10.0 mi South 10.4 mph - N/A   Overcast
8:53 PM 12.0 °F 0.5 °F 5.0 °F 73% 30.23 in 10.0 mi South 8.1 mph - N/A   Overcast
9:53 PM 12.0 °F 2.7 °F 5.0 °F 73% 30.24 in 10.0 mi South 5.8 mph - N/A   Overcast
10:40 PM 10.4 °F -0.4 °F 5.0 °F 79% 30.14 in 10.0 mi South 6.9 mph - N/A   Overcast
10:53 PM 10.9 °F 1.4 °F 5.0 °F 77% 30.23 in 10.0 mi South 5.8 mph - N/A   Overcast
11:23 PM 10.4 °F 2.2 °F 5.0 °F 79% 30.14 in 10.0 mi South 4.6 mph - N/A   Mostly Cloudy
11:45 PM 10.4 °F 0.8 °F 5.0 °F 79% 30.14 in 10.0 mi South 5.8 mph - N/A   Scattered Clouds
11:53 PM 9.0 °F -0.9 °F 5.0 °F 84% 30.23 in 10.0 mi South 5.8 mph - N/A   Partly Cloudy